Time,TemperatureF,DewpointF,PressureIn,WindDirection,WindDirectionDegrees,WindSpeedMPH,WindSpeedGustMPH,Humidity,HourlyPrecipIn,Conditions,Clouds,dailyrainin,SoftwareType,DateUTC
2013-10-29 00:00:00,54.3,49.6,29.89,SSW,208,6.0,12.0,84,0.00,,,0.00,meteohub,2013-10-29 07:00:00,
2013-10-29 00:05:00,54.3,49.6,29.89,SW,222,13.0,13.0,84,0.00,,,0.00,meteohub,2013-10-29 07:05:00,
2013-10-29 00:10:00,54.3,49.3,29.89,SW,226,7.0,10.0,83,0.00,,,0.00,meteohub,2013-10-29 07:10:00,
2013-10-29 00:15:00,54.3,49.3,29.89,SW,231,7.0,13.0,83,0.00,,,0.00,meteohub,2013-10-29 07:15:00,
2013-10-29 00:20:00,54.3,49.3,29.89,SW,218,8.0,13.0,83,0.00,,,0.00,meteohub,2013-10-29 07:20:00,
2013-10-29 00:25:00,54.1,49.1,29.89,SW,216,5.0,13.0,83,0.00,,,0.00,meteohub,2013-10-29 07:25:00,
2013-10-29 00:30:00,54.1,49.1,29.90,SW,233,5.0,12.0,83,0.00,,,0.00,meteohub,2013-10-29 07:30:00,
2013-10-29 00:35:00,54.1,49.1,29.90,WSW,243,4.0,12.0,83,0.00,,,0.00,meteohub,2013-10-29 07:35:00,
2013-10-29 00:40:00,54.1,48.7,29.90,SW,228,8.0,11.0,82,0.00,,,0.00,meteohub,2013-10-29 07:40:00,
2013-10-29 00:45:00,54.3,49.3,29.90,SW,233,7.0,12.0,83,0.00,,,0.00,meteohub,2013-10-29 07:45:00,
2013-10-29 00:50:00,54.3,49.6,29.91,SW,230,7.0,12.0,84,0.00,,,0.00,meteohub,2013-10-29 07:50:00,
2013-10-29 00:55:00,54.3,49.3,29.90,SW,229,6.0,12.0,83,0.00,,,0.00,meteohub,2013-10-29 07:55:00,
2013-10-29 01:00:00,54.3,49.6,29.90,SW,222,4.0,11.0,84,0.00,,,0.00,meteohub,2013-10-29 08:00:00,
2013-10-29 01:05:00,54.5,49.8,29.90,SW,235,6.0,11.0,84,0.00,,,0.00,meteohub,2013-10-29 08:05:00,
2013-10-29 01:10:00,54.5,49.8,29.91,SSW,210,6.0,11.0,84,0.00,,,0.00,meteohub,2013-10-29 08:10:00,
2013-10-29 01:15:00,54.7,50.0,29.90,SSW,204,8.0,12.0,84,0.00,,,0.00,meteohub,2013-10-29 08:15:00,
2013-10-29 01:20:00,54.7,50.0,29.90,SSW,210,10.0,12.0,84,0.00,,,0.00,meteohub,2013-10-29 08:20:00,
2013-10-29 01:25:00,54.7,49.6,29.91,SSW,207,11.0,16.0,83,0.00,,,0.00,meteohub,2013-10-29 08:25:00,
2013-10-29 01:30:00,54.9,49.5,29.91,SSW,213,8.0,16.0,82,0.00,,,0.00,meteohub,2013-10-29 08:30:00,
2013-10-29 01:35:00,54.9,49.8,29.91,SW,214,6.0,16.0,83,0.00,,,0.00,meteohub,2013-10-29 08:35:00,
2013-10-29 01:40:00,54.9,49.5,29.91,SW,227,8.0,15.0,82,0.00,,,0.00,meteohub,2013-10-29 08:40:00,
2013-10-29 01:45:00,54.9,49.8,29.91,SSW,210,12.0,15.0,83,0.00,,,0.00,meteohub,2013-10-29 08:45:00,
2013-10-29 01:50:00,54.9,49.5,29.91,SW,215,9.0,15.0,82,0.00,,,0.00,meteohub,2013-10-29 08:50:00,
2013-10-29 01:55:00,54.9,49.1,29.91,SSW,206,13.0,15.0,81,0.00,,,0.00,meteohub,2013-10-29 08:55:00,
2013-10-29 02:00:00,54.9,49.1,29.91,SW,216,7.0,15.0,81,0.00,,,0.00,meteohub,2013-10-29 09:00:00,
2013-10-29 02:05:00,54.9,49.1,29.91,SW,218,6.0,15.0,81,0.00,,,0.00,meteohub,2013-10-29 09:05:00,
2013-10-29 02:10:00,54.9,49.5,29.91,SSW,212,8.0,15.0,82,0.00,,,0.00,meteohub,2013-10-29 09:10:00,
2013-10-29 02:15:00,54.9,49.5,29.92,SSW,212,9.0,15.0,82,0.00,,,0.00,meteohub,2013-10-29 09:15:00,
2013-10-29 02:20:00,54.7,49.3,29.92,SSW,210,7.0,15.0,82,0.00,,,0.00,meteohub,2013-10-29 09:20:00,
2013-10-29 02:25:00,54.9,49.5,29.92,SSW,210,8.0,14.0,82,0.00,,,0.00,meteohub,2013-10-29 09:25:00,
2013-10-29 02:30:00,54.9,49.5,29.92,SSW,201,6.0,14.0,82,0.00,,,0.00,meteohub,2013-10-29 09:30:00,
2013-10-29 02:35:00,54.9,49.8,29.92,SSW,204,7.0,14.0,83,0.00,,,0.00,meteohub,2013-10-29 09:35:00,
2013-10-29 02:40:00,54.9,49.5,29.92,South,189,8.0,14.0,82,0.00,,,0.00,meteohub,2013-10-29 09:40:00,
2013-10-29 02:45:00,54.9,49.5,29.92,South,184,12.0,14.0,82,0.00,,,0.00,meteohub,2013-10-29 09:45:00,
2013-10-29 02:50:00,54.9,49.5,29.92,SW,234,8.0,14.0,82,0.00,,,0.00,meteohub,2013-10-29 09:50:00,
2013-10-29 02:55:00,54.9,49.1,29.92,WSW,245,8.0,13.0,81,0.00,,,0.00,meteohub,2013-10-29 09:55:00,
2013-10-29 03:01:00,54.9,49.1,29.92,WSW,237,6.0,13.0,81,0.00,,,0.00,meteohub,2013-10-29 10:01:00,
2013-10-29 03:06:00,54.9,49.1,29.92,WSW,245,6.0,13.0,81,0.00,,,0.00,meteohub,2013-10-29 10:06:00,
2013-10-29 03:11:00,54.9,48.7,29.92,WSW,241,7.0,13.0,80,0.00,,,0.00,meteohub,2013-10-29 10:11:00,
2013-10-29 03:16:00,54.9,48.7,29.93,WSW,252,10.0,11.0,80,0.00,,,0.00,meteohub,2013-10-29 10:16:00,
2013-10-29 03:21:00,54.7,48.9,29.93,WSW,255,9.0,13.0,81,0.00,,,0.00,meteohub,2013-10-29 10:21:00,
2013-10-29 03:26:00,54.7,49.3,29.93,West,260,6.0,13.0,82,0.00,,,0.00,meteohub,2013-10-29 10:26:00,
2013-10-29 03:31:00,54.7,49.3,29.93,West,265,5.0,13.0,82,0.00,,,0.00,meteohub,2013-10-29 10:31:00,
2013-10-29 03:36:00,54.7,49.3,29.93,SW,236,6.0,11.0,82,0.00,,,0.00,meteohub,2013-10-29 10:36:00,
2013-10-29 03:41:00,54.7,49.3,29.93,WSW,250,7.0,11.0,82,0.00,,,0.00,meteohub,2013-10-29 10:41:00,
2013-10-29 03:46:00,54.7,48.9,29.94,WSW,255,5.0,9.0,81,0.00,,,0.00,meteohub,2013-10-29 10:46:00,
2013-10-29 03:51:00,54.7,48.9,29.94,WSW,256,4.0,9.0,81,0.00,,,0.00,meteohub,2013-10-29 10:51:00,
2013-10-29 03:56:00,54.7,48.6,29.94,WSW,257,6.0,9.0,80,0.00,,,0.00,meteohub,2013-10-29 10:56:00,
2013-10-29 04:01:00,54.7,48.6,29.93,WSW,257,5.0,11.0,80,0.00,,,0.00,meteohub,2013-10-29 11:01:00,
2013-10-29 04:06:00,54.7,48.6,29.93,WSW,258,7.0,11.0,80,0.00,,,0.00,meteohub,2013-10-29 11:06:00,
2013-10-29 04:11:00,54.7,48.9,29.94,WSW,256,6.0,11.0,81,0.00,,,0.00,meteohub,2013-10-29 11:11:00,
2013-10-29 04:16:00,54.7,48.9,29.94,WSW,248,6.0,12.0,81,0.00,,,0.00,meteohub,2013-10-29 11:16:00,
2013-10-29 04:21:00,54.7,49.3,29.94,WSW,245,7.0,12.0,82,0.00,,,0.00,meteohub,2013-10-29 11:21:00,
2013-10-29 04:26:00,54.7,49.3,29.94,WSW,247,4.0,12.0,82,0.00,,,0.00,meteohub,2013-10-29 11:26:00,
2013-10-29 04:31:00,54.7,49.3,29.94,WSW,250,8.0,10.0,82,0.00,,,0.00,meteohub,2013-10-29 11:31:00,
2013-10-29 04:36:00,54.7,49.3,29.94,WSW,250,4.0,10.0,82,0.00,,,0.00,meteohub,2013-10-29 11:36:00,
2013-10-29 04:41:00,54.7,49.3,29.94,WSW,249,4.0,9.0,82,0.00,,,0.00,meteohub,2013-10-29 11:41:00,
2013-10-29 04:46:00,54.7,49.6,29.94,WSW,249,6.0,9.0,83,0.00,,,0.00,meteohub,2013-10-29 11:46:00,
2013-10-29 04:51:00,54.7,49.6,29.94,WSW,249,4.0,9.0,83,0.00,,,0.00,meteohub,2013-10-29 11:51:00,
2013-10-29 04:56:00,54.5,49.5,29.94,WSW,249,5.0,7.0,83,0.00,,,0.00,meteohub,2013-10-29 11:56:00,
2013-10-29 05:01:00,54.5,49.5,29.94,WSW,249,5.0,10.0,83,0.00,,,0.00,meteohub,2013-10-29 12:01:00,
2013-10-29 05:06:00,54.5,49.8,29.94,WSW,247,2.0,10.0,84,0.00,,,0.00,meteohub,2013-10-29 12:06:00,
2013-10-29 05:12:00,54.5,49.8,29.95,WSW,248,5.0,10.0,84,0.00,,,0.00,meteohub,2013-10-29 12:12:00,
2013-10-29 05:17:00,54.5,49.8,29.95,WSW,249,4.0,9.0,84,0.00,,,0.00,meteohub,2013-10-29 12:17:00,
2013-10-29 05:22:00,54.3,49.6,29.96,WSW,258,5.0,8.0,84,0.00,,,0.00,meteohub,2013-10-29 12:22:00,
2013-10-29 05:27:00,54.3,49.6,29.96,WSW,256,6.0,9.0,84,0.00,,,0.00,meteohub,2013-10-29 12:27:00,
2013-10-29 05:32:00,54.3,49.6,29.96,WSW,252,7.0,9.0,84,0.00,,,0.00,meteohub,2013-10-29 12:32:00,
2013-10-29 05:37:00,54.3,49.6,29.96,WSW,253,6.0,9.0,84,0.00,,,0.00,meteohub,2013-10-29 12:37:00,
2013-10-29 05:42:00,54.1,49.8,29.96,WSW,252,5.0,8.0,85,0.00,,,0.00,meteohub,2013-10-29 12:42:00,
2013-10-29 05:47:00,54.1,49.5,29.96,WSW,253,4.0,8.0,84,0.00,,,0.00,meteohub,2013-10-29 12:47:00,
2013-10-29 05:52:00,54.1,49.5,29.96,WSW,256,4.0,8.0,84,0.00,,,0.00,meteohub,2013-10-29 12:52:00,
2013-10-29 05:57:00,54.1,49.8,29.96,WSW,257,4.0,8.0,85,0.00,,,0.00,meteohub,2013-10-29 12:57:00,
2013-10-29 06:02:00,54.1,49.8,29.96,WSW,253,4.0,8.0,85,0.00,,,0.00,meteohub,2013-10-29 13:02:00,
2013-10-29 06:07:00,54.0,49.6,29.96,West,260,6.0,8.0,85,0.00,,,0.00,meteohub,2013-10-29 13:07:00,
2013-10-29 06:12:00,54.0,49.6,29.96,WSW,258,5.0,8.0,85,0.00,,,0.00,meteohub,2013-10-29 13:12:00,
2013-10-29 06:17:00,53.8,49.5,29.96,WSW,258,0.0,8.0,85,0.00,,,0.00,meteohub,2013-10-29 13:17:00,
2013-10-29 06:22:00,53.8,49.6,29.96,WSW,257,0.0,8.0,86,0.00,,,0.00,meteohub,2013-10-29 13:22:00,
2013-10-29 06:27:00,53.8,49.6,29.96,WSW,257,2.0,6.0,86,0.00,,,0.00,meteohub,2013-10-29 13:27:00,
2013-10-29 06:32:00,53.8,49.6,29.96,WSW,258,2.0,5.0,86,0.00,,,0.00,meteohub,2013-10-29 13:32:00,
2013-10-29 06:37:00,53.6,49.5,29.97,WSW,257,1.0,6.0,86,0.00,,,0.00,meteohub,2013-10-29 13:37:00,
2013-10-29 06:42:00,53.4,49.3,29.97,WSW,258,2.0,6.0,86,0.00,,,0.00,meteohub,2013-10-29 13:42:00,
2013-10-29 06:47:00,53.6,49.5,29.97,WSW,258,4.0,6.0,86,0.00,,,0.00,meteohub,2013-10-29 13:47:00,
2013-10-29 06:52:00,53.4,49.3,29.97,WSW,258,7.0,7.0,86,0.00,,,0.00,meteohub,2013-10-29 13:52:00,
2013-10-29 06:57:00,53.4,49.3,29.98,WSW,254,5.0,8.0,86,0.00,,,0.00,meteohub,2013-10-29 13:57:00,
2013-10-29 07:02:00,53.4,49.3,29.98,WSW,243,2.0,8.0,86,0.00,,,0.00,meteohub,2013-10-29 14:02:00,
2013-10-29 07:07:00,53.2,49.1,29.98,WSW,242,4.0,8.0,86,0.00,,,0.00,meteohub,2013-10-29 14:07:00,
2013-10-29 07:12:00,53.2,49.1,29.98,WSW,242,1.0,7.0,86,0.00,,,0.00,meteohub,2013-10-29 14:12:00,
2013-10-29 07:17:00,53.2,49.1,29.99,WSW,241,3.0,6.0,86,0.00,,,0.00,meteohub,2013-10-29 14:17:00,
2013-10-29 07:22:00,53.2,48.9,29.99,WSW,241,1.0,6.0,85,0.00,,,0.00,meteohub,2013-10-29 14:22:00,
2013-10-29 07:27:00,53.4,48.7,29.98,WSW,243,0.0,4.0,84,0.00,,,0.00,meteohub,2013-10-29 14:27:00,
2013-10-29 07:32:00,53.4,48.4,29.99,WSW,241,4.0,4.0,83,0.00,,,0.00,meteohub,2013-10-29 14:32:00,
2013-10-29 07:37:00,53.4,48.4,29.99,WSW,251,3.0,5.0,83,0.00,,,0.00,meteohub,2013-10-29 14:37:00,
2013-10-29 07:43:00,53.6,48.2,29.99,WSW,253,3.0,7.0,82,0.00,,,0.00,meteohub,2013-10-29 14:43:00,
2013-10-29 07:48:00,53.8,48.4,29.99,WSW,251,1.0,7.0,82,0.00,,,0.00,meteohub,2013-10-29 14:48:00,
2013-10-29 07:53:00,53.8,48.4,29.99,WSW,256,1.0,7.0,82,0.00,,,0.00,meteohub,2013-10-29 14:53:00,
2013-10-29 07:58:00,53.4,48.4,29.99,WSW,253,2.0,6.0,83,0.00,,,0.00,meteohub,2013-10-29 14:58:00,
2013-10-29 08:03:00,53.2,48.6,29.99,WSW,254,0.0,5.0,84,0.00,,,0.00,meteohub,2013-10-29 15:03:00,
2013-10-29 08:08:00,53.2,48.9,29.99,WSW,255,3.0,4.0,85,0.00,,,0.00,meteohub,2013-10-29 15:08:00,
2013-10-29 08:13:00,53.1,48.7,29.99,WSW,255,0.0,4.0,85,0.00,,,0.00,meteohub,2013-10-29 15:13:00,
2013-10-29 08:18:00,53.1,48.9,29.99,WSW,256,2.0,3.0,86,0.00,,,0.00,meteohub,2013-10-29 15:18:00,
2013-10-29 08:23:00,53.1,48.9,29.99,WSW,256,0.0,3.0,86,0.00,,,0.00,meteohub,2013-10-29 15:23:00,
2013-10-29 08:28:00,53.2,49.1,29.99,WSW,253,0.0,3.0,86,0.00,,,0.00,meteohub,2013-10-29 15:28:00,
2013-10-29 08:33:00,53.2,49.1,29.99,WSW,256,0.0,3.0,86,0.00,,,0.00,meteohub,2013-10-29 15:33:00,
2013-10-29 08:38:00,53.2,48.9,30.00,WSW,255,0.0,0.0,85,0.00,,,0.00,meteohub,2013-10-29 15:38:00,
2013-10-29 08:43:00,53.4,49.1,30.00,WSW,253,3.0,0.0,85,0.00,,,0.00,meteohub,2013-10-29 15:43:00,
2013-10-29 08:48:00,53.8,49.5,30.00,WSW,256,0.0,4.0,85,0.00,,,0.00,meteohub,2013-10-29 15:48:00,
2013-10-29 08:53:00,54.0,49.3,30.01,WSW,256,2.0,4.0,84,0.00,,,0.00,meteohub,2013-10-29 15:53:00,
2013-10-29 08:58:00,54.0,49.3,30.01,WSW,256,0.0,4.0,84,0.00,,,0.00,meteohub,2013-10-29 15:58:00,
2013-10-29 09:03:00,54.1,49.5,30.01,WSW,254,3.0,3.0,84,0.00,,,0.00,meteohub,2013-10-29 16:03:00,
2013-10-29 09:08:00,54.3,49.3,30.01,WSW,256,3.0,3.0,83,0.00,,,0.00,meteohub,2013-10-29 16:08:00,
2013-10-29 09:13:00,54.3,49.3,30.01,West,267,1.0,4.0,83,0.00,,,0.00,meteohub,2013-10-29 16:13:00,
2013-10-29 09:18:00,54.1,49.1,30.01,West,268,2.0,5.0,83,0.00,,,0.00,meteohub,2013-10-29 16:18:00,
2013-10-29 09:23:00,54.3,49.3,30.01,West,268,2.0,5.0,83,0.00,,,0.00,meteohub,2013-10-29 16:23:00,
2013-10-29 09:28:00,54.3,48.9,30.01,West,269,4.0,5.0,82,0.00,,,0.00,meteohub,2013-10-29 16:28:00,
2013-10-29 09:33:00,54.3,48.9,30.01,West,268,2.0,5.0,82,0.00,,,0.00,meteohub,2013-10-29 16:33:00,
2013-10-29 09:38:00,54.7,48.9,30.01,WNW,285,3.0,5.0,81,0.00,,,0.00,meteohub,2013-10-29 16:38:00,
2013-10-29 09:43:00,54.9,48.7,30.01,WNW,286,2.0,5.0,80,0.00,,,0.00,meteohub,2013-10-29 16:43:00,
2013-10-29 09:48:00,54.9,48.7,30.02,WNW,284,4.0,5.0,80,0.00,,,0.00,meteohub,2013-10-29 16:48:00,
2013-10-29 09:53:00,54.9,48.6,30.02,WNW,286,3.0,5.0,79,0.00,,,0.00,meteohub,2013-10-29 16:53:00,
2013-10-29 09:58:00,55.0,48.9,30.02,WNW,287,0.0,7.0,80,0.00,,,0.00,meteohub,2013-10-29 16:58:00,
2013-10-29 10:03:00,55.2,48.7,30.02,WNW,286,3.0,7.0,79,0.00,,,0.00,meteohub,2013-10-29 17:03:00,
2013-10-29 10:08:00,55.2,48.2,30.02,West,278,2.0,7.0,77,0.00,,,0.00,meteohub,2013-10-29 17:08:00,
2013-10-29 10:13:00,55.2,47.8,30.02,West,263,3.0,7.0,76,0.00,,,0.00,meteohub,2013-10-29 17:13:00,
2013-10-29 10:18:00,55.2,47.8,30.03,West,265,4.0,7.0,76,0.00,,,0.00,meteohub,2013-10-29 17:18:00,
2013-10-29 10:23:00,55.2,47.1,30.03,West,279,4.0,7.0,74,0.00,,,0.00,meteohub,2013-10-29 17:23:00,
2013-10-29 10:28:00,55.8,47.3,30.03,WSW,241,5.0,7.0,73,0.00,,,0.00,meteohub,2013-10-29 17:28:00,
2013-10-29 10:33:00,56.1,47.7,30.03,SW,233,2.0,7.0,73,0.00,,,0.00,meteohub,2013-10-29 17:33:00,
2013-10-29 10:38:00,56.5,46.8,30.03,WSW,237,5.0,7.0,70,0.00,,,0.00,meteohub,2013-10-29 17:38:00,
2013-10-29 10:44:00,56.3,46.9,30.03,SW,223,4.0,10.0,71,0.00,,,0.00,meteohub,2013-10-29 17:44:00,
2013-10-29 10:49:00,56.1,46.4,30.03,SW,233,6.0,10.0,70,0.00,,,0.00,meteohub,2013-10-29 17:49:00,
2013-10-29 10:54:00,56.1,46.4,30.03,SW,228,1.0,10.0,70,0.00,,,0.00,meteohub,2013-10-29 17:54:00,
2013-10-29 10:59:00,56.1,46.4,30.04,SSW,206,5.0,8.0,70,0.00,,,0.00,meteohub,2013-10-29 17:59:00,
2013-10-29 11:04:00,56.5,46.8,30.03,SW,231,3.0,9.0,70,0.00,,,0.00,meteohub,2013-10-29 18:04:00,
2013-10-29 11:09:00,56.3,46.2,30.04,SW,229,2.0,9.0,69,0.00,,,0.00,meteohub,2013-10-29 18:09:00,
2013-10-29 11:14:00,56.3,46.2,30.04,SW,223,4.0,9.0,69,0.00,,,0.00,meteohub,2013-10-29 18:14:00,
2013-10-29 11:19:00,56.1,46.4,30.04,SW,224,0.0,8.0,70,0.00,,,0.00,meteohub,2013-10-29 18:19:00,
2013-10-29 11:24:00,56.5,46.8,30.04,SW,224,4.0,8.0,70,0.00,,,0.00,meteohub,2013-10-29 18:24:00,
2013-10-29 11:29:00,56.7,46.6,30.04,SSW,208,5.0,7.0,69,0.00,,,0.00,meteohub,2013-10-29 18:29:00,
2013-10-29 11:34:00,56.7,46.6,30.04,SSW,195,1.0,9.0,69,0.00,,,0.00,meteohub,2013-10-29 18:34:00,
2013-10-29 11:39:00,57.2,47.1,30.04,SSE,162,5.0,9.0,69,0.00,,,0.00,meteohub,2013-10-29 18:39:00,
2013-10-29 11:44:00,57.4,46.9,30.04,SSW,192,4.0,9.0,68,0.00,,,0.00,meteohub,2013-10-29 18:44:00,
2013-10-29 11:49:00,57.6,47.5,30.04,South,180,5.0,9.0,69,0.00,,,0.00,meteohub,2013-10-29 18:49:00,
2013-10-29 11:54:00,57.6,47.1,30.04,South,180,7.0,11.0,68,0.00,,,0.00,meteohub,2013-10-29 18:54:00,
2013-10-29 11:59:00,57.6,46.8,30.04,SW,215,5.0,11.0,67,0.00,,,0.00,meteohub,2013-10-29 18:59:00,
2013-10-29 12:04:00,57.6,47.1,30.04,SW,220,7.0,9.0,68,0.00,,,0.00,meteohub,2013-10-29 19:04:00,
2013-10-29 12:09:00,57.2,46.8,30.04,SSW,193,4.0,9.0,68,0.00,,,0.00,meteohub,2013-10-29 19:09:00,
2013-10-29 12:14:00,57.0,46.6,30.03,SSW,199,3.0,8.0,68,0.00,,,0.00,meteohub,2013-10-29 19:14:00,
2013-10-29 12:19:00,57.0,46.6,30.03,SW,215,4.0,8.0,68,0.00,,,0.00,meteohub,2013-10-29 19:19:00,
2013-10-29 12:24:00,57.2,46.8,30.03,South,172,4.0,8.0,68,0.00,,,0.00,meteohub,2013-10-29 19:24:00,
2013-10-29 12:29:00,57.2,46.8,30.03,SSW,210,1.0,9.0,68,0.00,,,0.00,meteohub,2013-10-29 19:29:00,
2013-10-29 12:34:00,57.6,47.1,30.03,SW,220,4.0,9.0,68,0.00,,,0.00,meteohub,2013-10-29 19:34:00,
2013-10-29 12:39:00,57.6,46.8,30.03,South,189,2.0,9.0,67,0.00,,,0.00,meteohub,2013-10-29 19:39:00,
2013-10-29 12:44:00,57.7,47.3,30.03,South,188,4.0,9.0,68,0.00,,,0.00,meteohub,2013-10-29 19:44:00,
2013-10-29 12:49:00,57.7,46.9,30.03,SW,216,6.0,9.0,67,0.00,,,0.00,meteohub,2013-10-29 19:49:00,
2013-10-29 12:54:00,57.6,47.1,30.03,SW,230,6.0,10.0,68,0.00,,,0.00,meteohub,2013-10-29 19:54:00,
2013-10-29 12:59:00,57.6,47.1,30.03,SSW,201,8.0,11.0,68,0.00,,,0.00,meteohub,2013-10-29 19:59:00,
2013-10-29 13:04:00,58.1,47.1,30.03,SW,230,5.0,11.0,67,0.00,,,0.00,meteohub,2013-10-29 20:04:00,
2013-10-29 13:09:00,58.3,46.9,30.03,WSW,238,9.0,10.0,66,0.00,,,0.00,meteohub,2013-10-29 20:09:00,
2013-10-29 13:14:00,58.3,47.8,30.02,SW,224,10.0,11.0,68,0.00,,,0.00,meteohub,2013-10-29 20:14:00,
2013-10-29 13:19:00,58.1,47.7,30.02,SSW,195,10.0,11.0,68,0.00,,,0.00,meteohub,2013-10-29 20:19:00,
2013-10-29 13:24:00,58.3,47.3,30.02,SSW,201,7.0,13.0,67,0.00,,,0.00,meteohub,2013-10-29 20:24:00,
2013-10-29 13:29:00,58.6,47.7,30.03,SW,235,9.0,13.0,67,0.00,,,0.00,meteohub,2013-10-29 20:29:00,
2013-10-29 13:34:00,58.3,46.9,30.03,West,264,9.0,13.0,66,0.00,,,0.00,meteohub,2013-10-29 20:34:00,
2013-10-29 13:39:00,58.5,48.0,30.02,SSW,201,7.0,11.0,68,0.00,,,0.00,meteohub,2013-10-29 20:39:00,
2013-10-29 13:44:00,58.1,48.0,30.03,SSW,205,6.0,11.0,69,0.00,,,0.00,meteohub,2013-10-29 20:44:00,
2013-10-29 13:50:00,57.9,47.8,30.03,SW,232,6.0,11.0,69,0.00,,,0.00,meteohub,2013-10-29 20:50:00,
2013-10-29 13:55:00,57.9,48.2,30.03,WSW,251,9.0,10.0,70,0.00,,,0.00,meteohub,2013-10-29 20:55:00,
2013-10-29 14:00:00,57.7,48.0,30.03,SSW,205,5.0,11.0,70,0.00,,,0.00,meteohub,2013-10-29 21:00:00,
2013-10-29 14:05:00,57.6,47.8,30.03,WSW,241,6.0,11.0,70,0.00,,,0.00,meteohub,2013-10-29 21:05:00,
2013-10-29 14:10:00,57.6,48.2,30.03,WSW,242,6.0,11.0,71,0.00,,,0.00,meteohub,2013-10-29 21:10:00,
2013-10-29 14:15:00,57.6,48.6,30.03,SW,231,6.0,10.0,72,0.00,,,0.00,meteohub,2013-10-29 21:15:00,
2013-10-29 14:20:00,57.6,48.9,30.03,SW,229,6.0,11.0,73,0.00,,,0.00,meteohub,2013-10-29 21:20:00,
2013-10-29 14:25:00,57.6,48.9,30.02,SSW,202,8.0,11.0,73,0.00,,,0.00,meteohub,2013-10-29 21:25:00,
2013-10-29 14:30:00,57.0,48.7,30.03,SW,236,10.0,11.0,74,0.00,,,0.00,meteohub,2013-10-29 21:30:00,
2013-10-29 14:35:00,57.0,48.7,30.03,SSW,208,7.0,12.0,74,0.00,,,0.00,meteohub,2013-10-29 21:35:00,
2013-10-29 14:40:00,57.0,48.7,30.02,WSW,237,8.0,12.0,74,0.00,,,0.00,meteohub,2013-10-29 21:40:00,
2013-10-29 14:45:00,57.0,48.7,30.03,WSW,237,6.0,12.0,74,0.00,,,0.00,meteohub,2013-10-29 21:45:00,
2013-10-29 14:50:00,57.0,48.7,30.03,SW,218,4.0,10.0,74,0.00,,,0.00,meteohub,2013-10-29 21:50:00,
2013-10-29 14:55:00,57.4,48.7,30.03,South,177,8.0,10.0,73,0.00,,,0.00,meteohub,2013-10-29 21:55:00,
2013-10-29 15:00:00,57.6,48.6,30.02,South,184,5.0,10.0,72,0.00,,,0.00,meteohub,2013-10-29 22:00:00,
2013-10-29 15:05:00,57.9,48.6,30.02,SW,230,3.0,10.0,71,0.00,,,0.00,meteohub,2013-10-29 22:05:00,
2013-10-29 15:10:00,58.1,49.1,30.02,South,182,5.0,9.0,72,0.00,,,0.00,meteohub,2013-10-29 22:10:00,
2013-10-29 15:15:00,57.9,49.3,30.02,SSW,197,7.0,9.0,73,0.00,,,0.00,meteohub,2013-10-29 22:15:00,
2013-10-29 15:20:00,57.9,49.6,30.02,South,175,7.0,9.0,74,0.00,,,0.00,meteohub,2013-10-29 22:20:00,
2013-10-29 15:25:00,57.9,50.0,30.03,SW,218,6.0,9.0,75,0.00,,,0.00,meteohub,2013-10-29 22:25:00,
2013-10-29 15:30:00,58.1,49.8,30.02,South,189,6.0,9.0,74,0.00,,,0.00,meteohub,2013-10-29 22:30:00,
2013-10-29 15:35:00,58.3,49.3,30.02,SW,216,4.0,8.0,72,0.00,,,0.00,meteohub,2013-10-29 22:35:00,
2013-10-29 15:40:00,58.6,49.3,30.02,South,182,5.0,8.0,71,0.00,,,0.00,meteohub,2013-10-29 22:40:00,
2013-10-29 15:45:00,58.5,49.5,30.03,South,177,7.0,9.0,72,0.00,,,0.00,meteohub,2013-10-29 22:45:00,
2013-10-29 15:50:00,58.3,49.6,30.02,South,190,8.0,9.0,73,0.00,,,0.00,meteohub,2013-10-29 22:50:00,
2013-10-29 15:55:00,58.3,50.4,30.03,South,177,7.0,9.0,75,0.00,,,0.00,meteohub,2013-10-29 22:55:00,
2013-10-29 16:00:00,58.3,48.6,30.03,SW,226,7.0,10.0,70,0.00,,,0.00,meteohub,2013-10-29 23:00:00,
2013-10-29 16:05:00,58.5,49.1,30.03,SW,227,7.0,11.0,71,0.00,,,0.00,meteohub,2013-10-29 23:05:00,
2013-10-29 16:10:00,58.8,47.8,30.03,SW,231,4.0,11.0,67,0.00,,,0.00,meteohub,2013-10-29 23:10:00,
2013-10-29 16:15:00,58.6,47.7,30.03,SW,224,7.0,11.0,67,0.00,,,0.00,meteohub,2013-10-29 23:15:00,
2013-10-29 16:21:00,58.5,49.1,30.03,SW,219,6.0,12.0,71,0.00,,,0.00,meteohub,2013-10-29 23:21:00,
2013-10-29 16:26:00,58.5,48.4,30.03,SSW,208,7.0,12.0,69,0.00,,,0.00,meteohub,2013-10-29 23:26:00,
2013-10-29 16:31:00,58.3,48.9,30.03,SW,224,10.0,12.0,71,0.00,,,0.00,meteohub,2013-10-29 23:31:00,
2013-10-29 16:36:00,57.9,48.6,30.04,SW,216,8.0,12.0,71,0.00,,,0.00,meteohub,2013-10-29 23:36:00,
2013-10-29 16:41:00,57.9,48.6,30.04,SSW,205,4.0,12.0,71,0.00,,,0.00,meteohub,2013-10-29 23:41:00,
2013-10-29 16:46:00,57.9,48.9,30.04,SSW,203,5.0,11.0,72,0.00,,,0.00,meteohub,2013-10-29 23:46:00,
2013-10-29 16:51:00,58.3,48.9,30.04,SW,228,5.0,10.0,71,0.00,,,0.00,meteohub,2013-10-29 23:51:00,
2013-10-29 16:56:00,57.9,49.3,30.04,SW,231,6.0,10.0,73,0.00,,,0.00,meteohub,2013-10-29 23:56:00,
2013-10-29 17:01:00,57.9,49.3,30.03,SSW,210,7.0,10.0,73,0.00,,,0.00,meteohub,2013-10-30 00:01:00,
2013-10-29 17:06:00,57.6,49.3,30.03,SW,216,6.0,10.0,74,0.00,,,0.00,meteohub,2013-10-30 00:06:00,
2013-10-29 17:11:00,57.4,49.5,30.04,SW,224,5.0,10.0,75,0.00,,,0.00,meteohub,2013-10-30 00:11:00,
2013-10-29 17:16:00,57.4,49.5,30.04,SSW,212,5.0,11.0,75,0.00,,,0.00,meteohub,2013-10-30 00:16:00,
2013-10-29 17:21:00,57.6,49.6,30.04,SW,214,5.0,11.0,75,0.00,,,0.00,meteohub,2013-10-30 00:21:00,
2013-10-29 17:26:00,57.6,49.6,30.04,South,189,8.0,9.0,75,0.00,,,0.00,meteohub,2013-10-30 00:26:00,
2013-10-29 17:31:00,57.4,49.5,30.04,SSW,201,5.0,8.0,75,0.00,,,0.00,meteohub,2013-10-30 00:31:00,
2013-10-29 17:36:00,57.0,49.5,30.04,SSW,200,7.0,8.0,76,0.00,,,0.00,meteohub,2013-10-30 00:36:00,
2013-10-29 17:41:00,56.8,49.3,30.04,SSW,195,4.0,8.0,76,0.00,,,0.00,meteohub,2013-10-30 00:41:00,
2013-10-29 17:46:00,56.7,49.1,30.04,SSW,206,6.0,8.0,76,0.00,,,0.00,meteohub,2013-10-30 00:46:00,
2013-10-29 17:51:00,56.5,48.9,30.04,SW,220,6.0,9.0,76,0.00,,,0.00,meteohub,2013-10-30 00:51:00,
2013-10-29 17:56:00,56.3,49.1,30.04,SW,216,6.0,9.0,77,0.00,,,0.00,meteohub,2013-10-30 00:56:00,
2013-10-29 18:01:00,56.1,48.9,30.04,SSW,209,2.0,9.0,77,0.00,,,0.00,meteohub,2013-10-30 01:01:00,
2013-10-29 18:06:00,56.1,48.9,30.04,SSW,210,1.0,8.0,77,0.00,,,0.00,meteohub,2013-10-30 01:06:00,
2013-10-29 18:11:00,55.9,48.9,30.04,SSW,210,4.0,8.0,77,0.00,,,0.00,meteohub,2013-10-30 01:11:00,
2013-10-29 18:17:00,55.8,48.7,30.04,SSW,209,3.0,6.0,77,0.00,,,0.00,meteohub,2013-10-30 01:17:00,
2013-10-29 18:22:00,55.8,48.7,30.04,SSW,209,3.0,6.0,77,0.00,,,0.00,meteohub,2013-10-30 01:22:00,
2013-10-29 18:27:00,55.6,48.6,30.05,SSW,209,3.0,6.0,77,0.00,,,0.00,meteohub,2013-10-30 01:27:00,
2013-10-29 18:32:00,55.6,48.2,30.05,SSW,210,4.0,6.0,76,0.00,,,0.00,meteohub,2013-10-30 01:32:00,
2013-10-29 18:37:00,55.4,48.0,30.05,SSW,209,4.0,6.0,76,0.00,,,0.00,meteohub,2013-10-30 01:37:00,
2013-10-29 18:42:00,55.2,47.8,30.05,SSW,209,4.0,6.0,76,0.00,,,0.00,meteohub,2013-10-30 01:42:00,
2013-10-29 18:47:00,55.2,47.8,30.05,SSW,210,5.0,6.0,76,0.00,,,0.00,meteohub,2013-10-30 01:47:00,
2013-10-29 18:52:00,55.0,47.7,30.05,SSW,209,2.0,6.0,76,0.00,,,0.00,meteohub,2013-10-30 01:52:00,
2013-10-29 18:57:00,55.0,48.0,30.06,SSW,209,1.0,5.0,77,0.00,,,0.00,meteohub,2013-10-30 01:57:00,
2013-10-29 19:02:00,54.9,47.8,30.06,SSW,210,0.0,5.0,77,0.00,,,0.00,meteohub,2013-10-30 02:02:00,
2013-10-29 19:07:00,54.9,47.8,30.06,SSW,209,3.0,5.0,77,0.00,,,0.00,meteohub,2013-10-30 02:07:00,
2013-10-29 19:12:00,54.9,47.8,30.06,SSW,210,2.0,5.0,77,0.00,,,0.00,meteohub,2013-10-30 02:12:00,
2013-10-29 19:17:00,54.7,47.7,30.06,SSW,210,1.0,5.0,77,0.00,,,0.00,meteohub,2013-10-30 02:17:00,
2013-10-29 19:22:00,54.7,47.7,30.06,SSW,210,2.0,5.0,77,0.00,,,0.00,meteohub,2013-10-30 02:22:00,
2013-10-29 19:27:00,54.7,48.0,30.06,SSW,210,2.0,5.0,78,0.00,,,0.00,meteohub,2013-10-30 02:27:00,
2013-10-29 19:32:00,54.5,47.8,30.07,SSW,209,0.0,5.0,78,0.00,,,0.00,meteohub,2013-10-30 02:32:00,
2013-10-29 19:37:00,54.3,47.7,30.07,SSW,210,0.0,3.0,78,0.00,,,0.00,meteohub,2013-10-30 02:37:00,
2013-10-29 19:42:00,54.3,47.7,30.07,SSW,210,0.0,3.0,78,0.00,,,0.00,meteohub,2013-10-30 02:42:00,
2013-10-29 19:47:00,54.1,47.5,30.07,SSW,210,0.0,0.0,78,0.00,,,0.00,meteohub,2013-10-30 02:47:00,
2013-10-29 19:52:00,54.1,47.5,30.07,SSW,209,0.0,1.0,78,0.00,,,0.00,meteohub,2013-10-30 02:52:00,
2013-10-29 19:57:00,54.0,47.7,30.07,SSW,209,2.0,2.0,79,0.00,,,0.00,meteohub,2013-10-30 02:57:00,
2013-10-29 20:02:00,54.0,48.0,30.07,SSW,210,1.0,2.0,80,0.00,,,0.00,meteohub,2013-10-30 03:02:00,
2013-10-29 20:07:00,53.8,47.8,30.07,SSW,210,1.0,3.0,80,0.00,,,0.00,meteohub,2013-10-30 03:07:00,
2013-10-29 20:12:00,53.8,48.0,30.07,SSW,210,1.0,3.0,81,0.00,,,0.00,meteohub,2013-10-30 03:12:00,
2013-10-29 20:17:00,53.6,47.8,30.08,SSW,210,0.0,3.0,81,0.00,,,0.00,meteohub,2013-10-30 03:17:00,
2013-10-29 20:22:00,53.4,47.7,30.08,SSW,209,0.0,3.0,81,0.00,,,0.00,meteohub,2013-10-30 03:22:00,
2013-10-29 20:27:00,53.2,47.8,30.08,SSW,210,2.0,3.0,82,0.00,,,0.00,meteohub,2013-10-30 03:27:00,
2013-10-29 20:32:00,53.1,48.0,30.08,SSW,210,2.0,3.0,83,0.00,,,0.00,meteohub,2013-10-30 03:32:00,
2013-10-29 20:37:00,53.1,48.0,30.08,SSW,209,2.0,4.0,83,0.00,,,0.00,meteohub,2013-10-30 03:37:00,
2013-10-29 20:42:00,52.9,47.8,30.08,SSW,209,2.0,4.0,83,0.00,,,0.00,meteohub,2013-10-30 03:42:00,
2013-10-29 20:47:00,52.7,48.0,30.08,SSW,204,3.0,4.0,84,0.00,,,0.00,meteohub,2013-10-30 03:47:00,
2013-10-29 20:52:00,52.5,47.8,30.08,SSW,204,3.0,4.0,84,0.00,,,0.00,meteohub,2013-10-30 03:52:00,
2013-10-29 20:57:00,52.5,47.8,30.08,SE,139,3.0,4.0,84,0.00,,,0.00,meteohub,2013-10-30 03:57:00,
2013-10-29 21:01:00,52.3,47.7,30.08,SE,139,2.0,5.0,84,0.00,,,0.00,meteohub,2013-10-30 04:01:00,
2013-10-29 21:02:00,52.3,47.7,30.08,SE,138,3.0,5.0,84,0.00,,,0.00,meteohub,2013-10-30 04:02:00,
2013-10-29 21:04:00,52.3,47.7,30.08,SE,138,3.0,5.0,84,0.00,,,0.00,meteohub,2013-10-30 04:04:00,
2013-10-29 21:07:00,52.3,47.7,30.08,SE,138,2.0,5.0,84,0.00,,,0.00,meteohub,2013-10-30 04:07:00,
2013-10-29 21:12:00,52.3,47.7,30.08,SE,127,2.0,5.0,84,0.00,,,0.00,meteohub,2013-10-30 04:12:00,
2013-10-29 21:17:00,52.3,47.7,30.08,SE,127,2.0,5.0,84,0.00,,,0.00,meteohub,2013-10-30 04:17:00,
2013-10-29 21:22:00,52.3,47.7,30.09,SE,127,5.0,5.0,84,0.00,,,0.00,meteohub,2013-10-30 04:22:00,
2013-10-29 21:28:00,52.3,48.0,30.09,SE,127,3.0,4.0,85,0.00,,,0.00,meteohub,2013-10-30 04:28:00,
2013-10-29 21:33:00,52.2,47.8,30.09,SE,127,2.0,5.0,85,0.00,,,0.00,meteohub,2013-10-30 04:33:00,
2013-10-29 21:38:00,52.2,47.8,30.09,SE,127,1.0,5.0,85,0.00,,,0.00,meteohub,2013-10-30 04:38:00,
2013-10-29 21:43:00,52.2,47.8,30.09,SE,126,1.0,4.0,85,0.00,,,0.00,meteohub,2013-10-30 04:43:00,
2013-10-29 21:48:00,52.2,47.8,30.09,SE,127,0.0,4.0,85,0.00,,,0.00,meteohub,2013-10-30 04:48:00,
2013-10-29 21:53:00,52.2,47.8,30.10,SE,127,0.0,4.0,85,0.00,,,0.00,meteohub,2013-10-30 04:53:00,
2013-10-29 21:58:00,52.0,47.7,30.10,SE,127,0.0,2.0,85,0.00,,,0.00,meteohub,2013-10-30 04:58:00,
2013-10-29 22:03:00,51.8,47.5,30.10,SE,126,0.0,1.0,85,0.00,,,0.00,meteohub,2013-10-30 05:03:00,
2013-10-29 22:08:00,51.4,47.1,30.10,SE,127,0.0,0.0,85,0.00,,,0.00,meteohub,2013-10-30 05:08:00,
2013-10-29 22:13:00,51.3,46.9,30.10,SE,127,0.0,0.0,85,0.00,,,0.00,meteohub,2013-10-30 05:13:00,
2013-10-29 22:18:00,51.1,46.8,30.09,SE,126,0.0,1.0,85,0.00,,,0.00,meteohub,2013-10-30 05:18:00,
2013-10-29 22:23:00,50.9,46.6,30.10,SE,126,0.0,1.0,85,0.00,,,0.00,meteohub,2013-10-30 05:23:00,
2013-10-29 22:28:00,50.7,46.8,30.10,SE,126,0.0,1.0,86,0.00,,,0.00,meteohub,2013-10-30 05:28:00,
2013-10-29 22:33:00,50.7,46.8,30.10,SE,127,0.0,1.0,86,0.00,,,0.00,meteohub,2013-10-30 05:33:00,
2013-10-29 22:38:00,50.7,46.8,30.10,SE,127,0.0,1.0,86,0.00,,,0.00,meteohub,2013-10-30 05:38:00,
2013-10-29 22:43:00,50.7,46.8,30.10,SE,126,0.0,0.0,86,0.00,,,0.00,meteohub,2013-10-30 05:43:00,
2013-10-29 22:48:00,50.5,46.6,30.10,SE,127,0.0,0.0,86,0.00,,,0.00,meteohub,2013-10-30 05:48:00,
2013-10-29 22:53:00,50.5,46.6,30.10,SE,127,0.0,2.0,86,0.00,,,0.00,meteohub,2013-10-30 05:53:00,
2013-10-29 22:58:00,50.4,46.4,30.10,SE,127,0.0,2.0,86,0.00,,,0.00,meteohub,2013-10-30 05:58:00,
2013-10-29 23:03:00,50.2,46.2,30.10,SE,126,0.0,2.0,86,0.00,,,0.00,meteohub,2013-10-30 06:03:00,
2013-10-29 23:08:00,50.2,46.2,30.10,SE,127,0.0,1.0,86,0.00,,,0.00,meteohub,2013-10-30 06:08:00,
2013-10-29 23:13:00,49.8,45.9,30.10,SE,127,0.0,1.0,86,0.00,,,0.00,meteohub,2013-10-30 06:13:00,
2013-10-29 23:18:00,49.8,45.9,30.10,SE,127,1.0,1.0,86,0.00,,,0.00,meteohub,2013-10-30 06:18:00,
2013-10-29 23:23:00,49.6,45.9,30.10,SE,127,0.0,2.0,87,0.00,,,0.00,meteohub,2013-10-30 06:23:00,
2013-10-29 23:28:00,49.6,45.7,30.10,SE,127,0.0,2.0,86,0.00,,,0.00,meteohub,2013-10-30 06:28:00,
2013-10-29 23:33:00,49.5,45.5,30.10,SE,127,0.0,2.0,86,0.00,,,0.00,meteohub,2013-10-30 06:33:00,
2013-10-29 23:38:00,49.5,45.7,30.10,SE,127,0.0,2.0,87,0.00,,,0.00,meteohub,2013-10-30 06:38:00,
2013-10-29 23:43:00,49.3,45.5,30.11,SE,127,0.0,2.0,87,0.00,,,0.00,meteohub,2013-10-30 06:43:00,
2013-10-29 23:48:00,49.3,45.5,30.10,SE,127,0.0,2.0,87,0.00,,,0.00,meteohub,2013-10-30 06:48:00,
2013-10-29 23:53:00,49.1,45.3,30.10,SE,127,0.0,1.0,87,0.00,,,0.00,meteohub,2013-10-30 06:53:00,
2013-10-29 23:58:00,48.9,45.1,30.11,SE,127,0.0,1.0,87,0.00,,,0.00,meteohub,2013-10-30 06:58:00,